Location: Unspecified
(50.7693°N, 0.0000°E)
Time: 02:08:31
(UTC+00:00)

Vanguard 1 Rocket - Pass Details

Date: 27 June 2019
Orbit: 651 x 4225 km, 34.3° (Epoch: 22 July)

Event Time Altitude Azimuth Distance (km) Brightness Sun altitude
Rises 18:48:18 0° 259° (W) 7,382 13.0 11.1°
Reaches altitude 10° 18:54:36 10° 252° (WSW) 5,777 12.3 10.2°
Maximum altitude 19:07:26 32° 198° (SSW) 2,875 10.0 8.4°
Drops below altitude 10° 19:14:56 10° 137° (SE) 3,327 9.7 7.3°
Sets 19:17:30 0° 127° (SE) 3,970 10.0 7.0°
